Regional Weather Roundup
Issued by NWS

Home | Current Version | Previous Version | Text Only | Print | Product List | Glossary On
Versions: 1 2 3 4 5 6 7 8 9 10 11 12 13 14 15 16 17 18 19 20 21 22 23 24 25 26 27 28 29 30 31 32 33 34 35 36 37 38 39 40 41 42 43 44 45 46 47 48 49 50
000
ASUS43 KDMX 160006
RWRIA

WEATHER ROUNDUP FOR IOWA
NATIONAL WEATHER SERVICE DES MOINES IA
600 PM CST FRI DEC 15 2017

NOTE: "FAIR" INDICATES FEW OR NO CLOUDS BELOW 12,000 FEET WITH NO
SIGNIFICANT WEATHER AND/OR OBSTRUCTIONS TO VISIBILITY.

* - THESE STATIONS ARE NOT NWS STATIONS...THUS NOT UNDER NWS
QUALITY CONTROL.  THEY ALSO DO NOT REPORT WEATHER SUCH
AS PRECIPITATION OR FOG.

IAZ001>003-012>014-020>022-031>034-043>046-160100-
   NORTHWEST IOWA

CITY           SKY/WX    TMP DP  RH WIND       PRES   REMARKS
CARROLL *      CLOUDY    39  25  56 S8        29.78F WCI  34
CHEROKEE *     CLOUDY    37  23  56 S6        29.75S WCI  33
DENISON *      CLOUDY    39  25  56 S10       29.79F WCI  32
LE MARS *      CLOUDY    37  25  60 S8        29.73F WCI  31
ORANGE CITY *  CLOUDY    37  27  65 S5        29.73S WCI  34
SHELDON *      CLOUDY    37  25  60 S6        29.72R WCI  33
SIOUX CITY     PTCLDY    41  26  55 SW9       29.76F
6HR MIN TEMP:  41; 6HR MAX TEMP:  46;

SPENCER        CLOUDY    39  24  55 SW9       29.74F WCI  33
6HR MIN TEMP:  38; 6HR MAX TEMP:  45;

STORM LAKE *   CLOUDY    37  23  56 SW9       29.75F WCI  31
$$

IAZ055>058-069>071-079>083-090>094-160100-
   SOUTHWEST IOWA

CITY           SKY/WX    TMP DP  RH WIND       PRES   REMARKS
ATLANTIC *     MOCLDY    41  27  56 SW10      29.82F
AUDUBON *      CLOUDY    39  27  60 S8        29.81S WCI  34
CLARINDA *     CLEAR     41  25  52 S8        29.87F
COUNCIL BLFS * CLOUDY    43  27  52 SW10      29.82R
CRESTON *      CLEAR     39  23  52 SW12      29.87R WCI  32
HARLAN  *      CLOUDY    43  25  49 SW12      29.84S
LAMONI         CLEAR     38  21  50 S12       29.88F WCI  30
6HR MIN TEMP:  38; 6HR MAX TEMP:  44;

RED OAK *      CLOUDY    41  27  56 S8        29.85R
SHENANDOAH *   CLOUDY    43  25  49 SW13      29.85F
$$

IAZ047>049-059>061-072>074-084-160100-
   CENTRAL IOWA

CITY           SKY/WX    TMP DP  RH WIND       PRES   REMARKS
AMES           CLOUDY    39  24  55 SW8       29.82F WCI  33
6HR MIN TEMP:  39; 6HR MAX TEMP:  45;

ANKENY *       PTCLDY    41  21  45 S10       29.85S
BOONE *        CLOUDY    41  23  48 SW9       29.79F
CHARITON *     CLOUDY    37  21  52 S9        29.87S WCI  31
DES MOINES     CLOUDY    41  22  46 SW9       29.85S
6HR MIN TEMP:  40; 6HR MAX TEMP:  46;

GRINNELL*      CLOUDY    37  21  53 SW10      29.86S WCI  29
KNOXVILLE *    CLOUDY    39  19  45 S9        29.85F WCI  33
MARSHALLTOWN   CLOUDY    39  23  52 SW12      29.82S WCI  32
6HR MIN TEMP:  37; 6HR MAX TEMP:  45;

NEWTON *       CLOUDY    39  21  48 SW13      29.84F WCI  32
PELLA *        CLOUDY    38  20  47 S5        29.88F WCI  35
PERRY *          N/A     34  20  56 S8        29.81F WCI  27
$$

IAZ004>006-015-016-023>025-035-036-160100-
   NORTH CENTRAL IOWA

CITY           SKY/WX    TMP DP  RH WIND       PRES   REMARKS
ALGONA *       CLOUDY    39  25  56 S7        29.75F WCI  34
CLARION *      CLOUDY    39  25  56 SW9       29.77F WCI  33
ESTHERVILLE    CLOUDY    37  25  61 SW9       29.72F WCI  30
6HR MIN TEMP:  36; 6HR MAX TEMP:  40;

FORT DODGE *   CLOUDY    41  24  51 SW12      29.78F
MASON CITY     CLOUDY    37  22  54 SW8       29.77F WCI  31
6HR MIN TEMP:  35; 6HR MAX TEMP:  41;

FOREST CITY *  CLOUDY    37  27  65 SW7       29.75F WCI  32
WEBSTER CITY * CLOUDY    39  23  52 SW9       29.77F WCI  33
IOWA FALLS *   CLOUDY    38  24  57 SW8       29.80F WCI  32
$$

IAZ007>011-017>019-026>030-037>042-050>054-066-160100-
   NORTHEAST IOWA

CITY           SKY/WX    TMP DP  RH WIND       PRES   REMARKS
CEDAR RAPIDS   CLOUDY    32  21  64 SW8       29.85S WCI  25
6HR MIN TEMP:  32; 6HR MAX TEMP:  43;

CHARLES CITY * CLOUDY    36  25  64 SW7       29.78F WCI  30
CLINTON *      MOCLDY    33  23  66 SW9       29.89S WCI  25
DECORAH *      CLOUDY    32  28  86 S3        29.78S
DUBUQUE        MOCLDY    30  25  81 S9        29.84S WCI  22
6HR MIN TEMP:  28; 6HR MAX TEMP:  33;

MONTICELLO *   CLOUDY    27  21  80 S5        29.84S WCI  21
OELWEIN *      CLOUDY    32  27  80 S8        29.81S WCI  25
WATERLOO       CLOUDY    35  22  58 SW8       29.81S WCI  29
6HR MIN TEMP:  34; 6HR MAX TEMP:  41;

$$

IAZ064-065-067-068-078-160100-
   EAST CENTRAL IOWA

CITY           SKY/WX    TMP DP  RH WIND       PRES   REMARKS
DAVENPORT      CLEAR     36  22  56 S10       29.90F WCI  28
6HR MIN TEMP:  32; 6HR MAX TEMP:  37;

IOWA CITY      CLOUDY    35  21  56 SW6       29.90S WCI  30
6HR MIN TEMP:  35; 6HR MAX TEMP:  45;

MT. PLEASANT * CLOUDY    34  20  57 SW10      29.92S WCI  26
MUSCATINE *    CLEAR     34  21  60 S8        29.91S WCI  27
QUAD CITIES    CLEAR     36  22  56 S9        29.89  WCI  29
6HR MIN TEMP:  33; 6HR MAX TEMP:  39;

$$

IAZ062-063-075>077-085>089-095>099-160100-
   SOUTHEAST IOWA

CITY           SKY/WX    TMP DP  RH WIND       PRES   REMARKS
BURLINGTON     CLEAR     35  22  58 SW10      29.93S WCI  27
6HR MIN TEMP:  34; 6HR MAX TEMP:  43;

FAIRFIELD *    CLOUDY    36  19  51 SW9       29.90S WCI  29
FORT MADISON * CLEAR     37  21  52 SW8       29.95R WCI  31
KEOKUK *       CLEAR     37  21  52 SW9       29.95R WCI  31
OSKALOOSA *      N/A     33  20  59 SW10      29.89S WCI  25
OTTUMWA        CLOUDY    36  20  52 SW9       29.89S WCI  29
6HR MIN TEMP:  35; 6HR MAX TEMP:  45;

WASHINGTON *   CLOUDY    36  23  60 SW10      29.91S WCI  28
$$

ABBREVIATIONS USED IN REMARKS
   TC - TEMPERATURES IN CELSIUS
  WCI - WIND CHILL INDEX
   HX - HEAT INDEX
  VSB - VISIBILITY
$$





USA.gov is the U.S. government's official web portal to all federal, state and local government web resources and services.